USA 170

Last updated on Fri Dec 12 2025 00:02:46 GMT+0000 (Coordinated Universal Time)

1 27875U 03040A 25344.84998478 .00000128 00000+0 00000+0 0 9990 2 27875 10.1012 49.7096 0002857 237.9781 122.2312 1.00272976 31090
UTC large
Height (km)
Speed (km/s)
/
Latitude / Longitude
Inclination (degrees)
Orbital Period (minutes)
Azimuth
Elevation
Range (km)
Doppler Factor

Next 0 passes for location: London (51.5072 / 0.1276)

Sorry there are no passes over London.